owner,sensor,date,latitude,longitude,air_pressure(mBar),qcFlag 
WAVCIS,ioos:station:WAVCIS:CSI16:1,2010-02-01T00:00:00Z,29.4012,-89.0355,1014.92,11111222 
WAVCIS,ioos:station:WAVCIS:CSI16:1,2010-02-01T01:00:00Z,29.4012,-89.0355,1015.41,11111222 
WAVCIS,ioos:station:WAVCIS:CSI16:1,2010-02-01T02:00:00Z,29.4012,-89.0355,1015.6,11111222 
WAVCIS,ioos:station:WAVCIS:CSI16:1,2010-02-01T03:00:00Z,29.4012,-89.0355,1015.5,11111222 
WAVCIS,ioos:station:WAVCIS:CSI16:1,2010-02-01T04:00:00Z,29.4012,-89.0355,1015.78,11111222 
WAVCIS,ioos:station:WAVCIS:CSI16:1,2010-02-01T05:00:00Z,29.4012,-89.0355,1015.44,11111222 
WAVCIS,ioos:station:WAVCIS:CSI16:1,2010-02-01T06:00:00Z,29.4012,-89.0355,1015.4,11111222 
WAVCIS,ioos:station:WAVCIS:CSI16:1,2010-02-01T07:00:00Z,29.4012,-89.0355,1014.74,11111222 
WAVCIS,ioos:station:WAVCIS:CSI16:1,2010-02-01T08:00:00Z,29.4012,-89.0355,1014.46,11111222 
WAVCIS,ioos:station:WAVCIS:CSI16:1,2010-02-01T09:00:00Z,29.4012,-89.0355,1014.45,11111222 
WAVCIS,ioos:station:WAVCIS:CSI16:1,2010-02-01T10:00:00Z,29.4012,-89.0355,1014.17,11111222 
WAVCIS,ioos:station:WAVCIS:CSI16:1,2010-02-01T11:00:00Z,29.4012,-89.0355,1014.05,11111222 
WAVCIS,ioos:station:WAVCIS:CSI16:1,2010-02-01T12:00:00Z,29.4012,-89.0355,1014.59,11111222 
WAVCIS,ioos:station:WAVCIS:CSI16:1,2010-02-01T13:00:00Z,29.4012,-89.0355,1014.44,11111222 
WAVCIS,ioos:station:WAVCIS:CSI16:1,2010-02-01T14:00:00Z,29.4012,-89.0355,1014.62,11111222 
WAVCIS,ioos:station:WAVCIS:CSI16:1,2010-02-01T15:00:00Z,29.4012,-89.0355,1015.05,11111222 
WAVCIS,ioos:station:WAVCIS:CSI16:1,2010-02-01T16:00:00Z,29.4012,-89.0355,1015.05,11111222 
WAVCIS,ioos:station:WAVCIS:CSI16:1,2010-02-01T17:00:00Z,29.4012,-89.0355,1014.3,11111222 
WAVCIS,ioos:station:WAVCIS:CSI16:1,2010-02-01T18:00:00Z,29.4012,-89.0355,1012.86,11111222 
WAVCIS,ioos:station:WAVCIS:CSI16:1,2010-02-01T19:00:00Z,29.4012,-89.0355,1012.28,11111222 
WAVCIS,ioos:station:WAVCIS:CSI16:1,2010-02-01T20:00:00Z,29.4012,-89.0355,1011.65,11111222 
WAVCIS,ioos:station:WAVCIS:CSI16:1,2010-02-01T21:00:00Z,29.4012,-89.0355,1011.48,11111222 
WAVCIS,ioos:station:WAVCIS:CSI16:1,2010-02-01T22:00:00Z,29.4012,-89.0355,1011.59,11111222 
WAVCIS,ioos:station:WAVCIS:CSI16:1,2010-02-01T23:00:00Z,29.4012,-89.0355,1011.36,11111222 
WAVCIS,ioos:station:WAVCIS:CSI16:1,2010-02-02T00:00:00Z,29.4012,-89.0355,1012.03,11111222 
WAVCIS,ioos:station:WAVCIS:CSI16:1,2010-02-02T01:00:00Z,29.4012,-89.0355,1012.38,11111222 
WAVCIS,ioos:station:WAVCIS:CSI16:1,2010-02-02T02:00:00Z,29.4012,-89.0355,1011.83,11111222 
WAVCIS,ioos:station:WAVCIS:CSI16:1,2010-02-02T03:00:00Z,29.4012,-89.0355,1011.7,11111222 
WAVCIS,ioos:station:WAVCIS:CSI16:1,2010-02-02T04:00:00Z,29.4012,-89.0355,1011.57,11111222 
WAVCIS,ioos:station:WAVCIS:CSI16:1,2010-02-02T05:00:00Z,29.4012,-89.0355,1011.63,11111222 
WAVCIS,ioos:station:WAVCIS:CSI16:1,2010-02-02T06:00:00Z,29.4012,-89.0355,1011.63,11111222 
WAVCIS,ioos:station:WAVCIS:CSI16:1,2010-02-02T07:00:00Z,29.4012,-89.0355,1011.5,11111222 
WAVCIS,ioos:station:WAVCIS:CSI16:1,2010-02-02T08:00:00Z,29.4012,-89.0355,1011.4,11111222 
WAVCIS,ioos:station:WAVCIS:CSI16:1,2010-02-02T09:00:00Z,29.4012,-89.0355,1010.7,11111222 
WAVCIS,ioos:station:WAVCIS:CSI16:1,2010-02-02T10:00:00Z,29.4012,-89.0355,1010.78,11111222 
WAVCIS,ioos:station:WAVCIS:CSI16:1,2010-02-02T11:00:00Z,29.4012,-89.0355,1011.31,11111222 
WAVCIS,ioos:station:WAVCIS:CSI16:1,2010-02-02T12:00:00Z,29.4012,-89.0355,1011.52,11111222 
WAVCIS,ioos:station:WAVCIS:CSI16:1,2010-02-02T13:00:00Z,29.4012,-89.0355,1011.68,11111222 
WAVCIS,ioos:station:WAVCIS:CSI16:1,2010-02-02T14:00:00Z,29.4012,-89.0355,1011.99,11111222 
WAVCIS,ioos:station:WAVCIS:CSI16:1,2010-02-02T15:00:00Z,29.4012,-89.0355,1013.08,11111222 
WAVCIS,ioos:station:WAVCIS:CSI16:1,2010-02-02T16:00:00Z,29.4012,-89.0355,1014.67,11111222 
WAVCIS,ioos:station:WAVCIS:CSI16:1,2010-02-02T17:00:00Z,29.4012,-89.0355,1014.48,11111222 
WAVCIS,ioos:station:WAVCIS:CSI16:1,2010-02-02T18:00:00Z,29.4012,-89.0355,1013.77,11111222 
WAVCIS,ioos:station:WAVCIS:CSI16:1,2010-02-02T19:00:00Z,29.4012,-89.0355,1013.55,11111222 
WAVCIS,ioos:station:WAVCIS:CSI16:1,2010-02-02T20:00:00Z,29.4012,-89.0355,1012.13,11111222 
WAVCIS,ioos:station:WAVCIS:CSI16:1,2010-02-02T21:00:00Z,29.4012,-89.0355,1011.09,11111222 
WAVCIS,ioos:station:WAVCIS:CSI16:1,2010-02-02T22:00:00Z,29.4012,-89.0355,1012.03,11111222 
WAVCIS,ioos:station:WAVCIS:CSI16:1,2010-02-02T23:00:00Z,29.4012,-89.0355,1012.21,11111222 
WAVCIS,ioos:station:WAVCIS:CSI16:1,2010-02-03T00:00:00Z,29.4012,-89.0355,1012.83,11111222 
WAVCIS,ioos:station:WAVCIS:CSI16:1,2010-02-03T01:00:00Z,29.4012,-89.0355,1013.37,11111222 
WAVCIS,ioos:station:WAVCIS:CSI16:1,2010-02-03T02:00:00Z,29.4012,-89.0355,1013.57,11111222 
WAVCIS,ioos:station:WAVCIS:CSI16:1,2010-02-03T03:00:00Z,29.4012,-89.0355,1014.12,11111222 
WAVCIS,ioos:station:WAVCIS:CSI16:1,2010-02-03T04:00:00Z,29.4012,-89.0355,1014.27,11111222 
WAVCIS,ioos:station:WAVCIS:CSI16:1,2010-02-03T05:00:00Z,29.4012,-89.0355,1014.64,11111222 
WAVCIS,ioos:station:WAVCIS:CSI16:1,2010-02-03T06:00:00Z,29.4012,-89.0355,1014.25,11111222 
WAVCIS,ioos:station:WAVCIS:CSI16:1,2010-02-03T07:00:00Z,29.4012,-89.0355,1014.23,11111222 
WAVCIS,ioos:station:WAVCIS:CSI16:1,2010-02-03T08:00:00Z,29.4012,-89.0355,1013.43,11111222 
WAVCIS,ioos:station:WAVCIS:CSI16:1,2010-02-03T09:00:00Z,29.4012,-89.0355,1012.98,11111222 
WAVCIS,ioos:station:WAVCIS:CSI16:1,2010-02-03T10:00:00Z,29.4012,-89.0355,1012.87,11111222 
WAVCIS,ioos:station:WAVCIS:CSI16:1,2010-02-03T11:00:00Z,29.4012,-89.0355,1013.1,11111222 
WAVCIS,ioos:station:WAVCIS:CSI16:1,2010-02-03T12:00:00Z,29.4012,-89.0355,1013.96,11111222 
WAVCIS,ioos:station:WAVCIS:CSI16:1,2010-02-03T13:00:00Z,29.4012,-89.0355,1014.26,11111222 
WAVCIS,ioos:station:WAVCIS:CSI16:1,2010-02-03T14:00:00Z,29.4012,-89.0355,1015.15,11111222 
WAVCIS,ioos:station:WAVCIS:CSI16:1,2010-02-03T15:00:00Z,29.4012,-89.0355,1015.66,11111222 
WAVCIS,ioos:station:WAVCIS:CSI16:1,2010-02-03T16:00:00Z,29.4012,-89.0355,1016.07,11111222 
WAVCIS,ioos:station:WAVCIS:CSI16:1,2010-02-03T17:00:00Z,29.4012,-89.0355,1015.29,11111222 
WAVCIS,ioos:station:WAVCIS:CSI16:1,2010-02-03T18:00:00Z,29.4012,-89.0355,1014.0,11111222 
WAVCIS,ioos:station:WAVCIS:CSI16:1,2010-02-03T19:00:00Z,29.4012,-89.0355,1013.04,11111222 
WAVCIS,ioos:station:WAVCIS:CSI16:1,2010-02-03T20:00:00Z,29.4012,-89.0355,1013.77,11111222 
WAVCIS,ioos:station:WAVCIS:CSI16:1,2010-02-03T21:00:00Z,29.4012,-89.0355,1013.74,11111222 
WAVCIS,ioos:station:WAVCIS:CSI16:1,2010-02-03T22:00:00Z,29.4012,-89.0355,1012.83,11111222 
WAVCIS,ioos:station:WAVCIS:CSI16:1,2010-02-03T23:00:00Z,29.4012,-89.0355,1011.0,11111222 
WAVCIS,ioos:station:WAVCIS:CSI16:1,2010-02-04T00:00:00Z,29.4012,-89.0355,1012.04,11111222 
WAVCIS,ioos:station:WAVCIS:CSI16:1,2010-02-04T01:00:00Z,29.4012,-89.0355,1012.41,11111222 
WAVCIS,ioos:station:WAVCIS:CSI16:1,2010-02-04T02:00:00Z,29.4012,-89.0355,1013.7,11111222 
WAVCIS,ioos:station:WAVCIS:CSI16:1,2010-02-04T03:00:00Z,29.4012,-89.0355,1014.11,11111222 
WAVCIS,ioos:station:WAVCIS:CSI16:1,2010-02-04T04:00:00Z,29.4012,-89.0355,1014.27,11111222 
WAVCIS,ioos:station:WAVCIS:CSI16:1,2010-02-04T05:00:00Z,29.4012,-89.0355,1013.07,11111222 
WAVCIS,ioos:station:WAVCIS:CSI16:1,2010-02-04T06:00:00Z,29.4012,-89.0355,1012.18,11111222 
WAVCIS,ioos:station:WAVCIS:CSI16:1,2010-02-04T07:00:00Z,29.4012,-89.0355,1011.83,11111222 
WAVCIS,ioos:station:WAVCIS:CSI16:1,2010-02-04T08:00:00Z,29.4012,-89.0355,1011.41,11111222 
WAVCIS,ioos:station:WAVCIS:CSI16:1,2010-02-04T09:00:00Z,29.4012,-89.0355,1010.3,11111222 
WAVCIS,ioos:station:WAVCIS:CSI16:1,2010-02-04T10:00:00Z,29.4012,-89.0355,1009.18,11111222 
WAVCIS,ioos:station:WAVCIS:CSI16:1,2010-02-04T11:00:00Z,29.4012,-89.0355,1009.58,11111222 
WAVCIS,ioos:station:WAVCIS:CSI16:1,2010-02-04T12:00:00Z,29.4012,-89.0355,1009.51,11111222 
WAVCIS,ioos:station:WAVCIS:CSI16:1,2010-02-04T13:00:00Z,29.4012,-89.0355,1008.82,11111222 
WAVCIS,ioos:station:WAVCIS:CSI16:1,2010-02-04T14:00:00Z,29.4012,-89.0355,1009.13,11111222 
WAVCIS,ioos:station:WAVCIS:CSI16:1,2010-02-04T15:00:00Z,29.4012,-89.0355,1008.71,11111222 
WAVCIS,ioos:station:WAVCIS:CSI16:1,2010-02-04T16:00:00Z,29.4012,-89.0355,1008.92,11111222 
WAVCIS,ioos:station:WAVCIS:CSI16:1,2010-02-04T17:00:00Z,29.4012,-89.0355,1008.18,11111222 
WAVCIS,ioos:station:WAVCIS:CSI16:1,2010-02-04T18:00:00Z,29.4012,-89.0355,1006.46,11111222 
WAVCIS,ioos:station:WAVCIS:CSI16:1,2010-02-04T19:00:00Z,29.4012,-89.0355,1006.074,11111222 
WAVCIS,ioos:station:WAVCIS:CSI16:1,2010-02-04T20:00:00Z,29.4012,-89.0355,1004.237,11111222 
WAVCIS,ioos:station:WAVCIS:CSI16:1,2010-02-04T21:00:00Z,29.4012,-89.0355,1002.521,11111222 
WAVCIS,ioos:station:WAVCIS:CSI16:1,2010-02-04T22:00:00Z,29.4012,-89.0355,1001.731,11111222 
WAVCIS,ioos:station:WAVCIS:CSI16:1,2010-02-04T23:00:00Z,29.4012,-89.0355,1001.271,11111222 
WAVCIS,ioos:station:WAVCIS:CSI16:1,2010-02-05T00:00:00Z,29.4012,-89.0355,1000.942,11111222 
WAVCIS,ioos:station:WAVCIS:CSI16:1,2010-02-05T01:00:00Z,29.4012,-89.0355,1000.831,11111222 
WAVCIS,ioos:station:WAVCIS:CSI16:1,2010-02-05T02:00:00Z,29.4012,-89.0355,1001.526,11111222 
WAVCIS,ioos:station:WAVCIS:CSI16:1,2010-02-05T03:00:00Z,29.4012,-89.0355,1001.254,11111222 
WAVCIS,ioos:station:WAVCIS:CSI16:1,2010-02-05T04:00:00Z,29.4012,-89.0355,1001.77,11111222 
WAVCIS,ioos:station:WAVCIS:CSI16:1,2010-02-05T05:00:00Z,29.4012,-89.0355,1001.206,11111222 
WAVCIS,ioos:station:WAVCIS:CSI16:1,2010-02-05T06:00:00Z,29.4012,-89.0355,1000.621,11111222 
WAVCIS,ioos:station:WAVCIS:CSI16:1,2010-02-05T07:00:00Z,29.4012,-89.0355,1000.414,11111222 
WAVCIS,ioos:station:WAVCIS:CSI16:1,2010-02-05T08:00:00Z,29.4012,-89.0355,999.577,11111222 
WAVCIS,ioos:station:WAVCIS:CSI16:1,2010-02-05T09:00:00Z,29.4012,-89.0355,999.532,11111222 
WAVCIS,ioos:station:WAVCIS:CSI16:1,2010-02-05T10:00:00Z,29.4012,-89.0355,999.962,11111222 
WAVCIS,ioos:station:WAVCIS:CSI16:1,2010-02-05T11:00:00Z,29.4012,-89.0355,998.973,11111222 
WAVCIS,ioos:station:WAVCIS:CSI16:1,2010-02-05T12:00:00Z,29.4012,-89.0355,999.959,11111222 
WAVCIS,ioos:station:WAVCIS:CSI16:1,2010-02-05T13:00:00Z,29.4012,-89.0355,1001.364,11111222 
WAVCIS,ioos:station:WAVCIS:CSI16:1,2010-02-05T14:00:00Z,29.4012,-89.0355,1001.651,11111222 
WAVCIS,ioos:station:WAVCIS:CSI16:1,2010-02-05T15:00:00Z,29.4012,-89.0355,1002.299,11111222 
WAVCIS,ioos:station:WAVCIS:CSI16:1,2010-02-05T16:00:00Z,29.4012,-89.0355,1003.566,11111222 
WAVCIS,ioos:station:WAVCIS:CSI16:1,2010-02-05T17:00:00Z,29.4012,-89.0355,1003.429,11111222 
WAVCIS,ioos:station:WAVCIS:CSI16:1,2010-02-05T18:00:00Z,29.4012,-89.0355,1002.699,11111222 
WAVCIS,ioos:station:WAVCIS:CSI16:1,2010-02-05T19:00:00Z,29.4012,-89.0355,1002.181,11111222 
WAVCIS,ioos:station:WAVCIS:CSI16:1,2010-02-05T20:00:00Z,29.4012,-89.0355,1001.932,11111222 
WAVCIS,ioos:station:WAVCIS:CSI16:1,2010-02-05T21:00:00Z,29.4012,-89.0355,1002.081,11111222 
WAVCIS,ioos:station:WAVCIS:CSI16:1,2010-02-05T22:00:00Z,29.4012,-89.0355,1002.113,11111222 
WAVCIS,ioos:station:WAVCIS:CSI16:1,2010-02-05T23:00:00Z,29.4012,-89.0355,1002.256,11111222 
WAVCIS,ioos:station:WAVCIS:CSI16:1,2010-02-06T00:00:00Z,29.4012,-89.0355,1002.512,11111222 
WAVCIS,ioos:station:WAVCIS:CSI16:1,2010-02-06T01:00:00Z,29.4012,-89.0355,1003.19,11111222 
WAVCIS,ioos:station:WAVCIS:CSI16:1,2010-02-06T02:00:00Z,29.4012,-89.0355,1003.383,11111222 
WAVCIS,ioos:station:WAVCIS:CSI16:1,2010-02-06T03:00:00Z,29.4012,-89.0355,1003.727,11111222 
WAVCIS,ioos:station:WAVCIS:CSI16:1,2010-02-06T04:00:00Z,29.4012,-89.0355,1004.09,11111222 
WAVCIS,ioos:station:WAVCIS:CSI16:1,2010-02-06T05:00:00Z,29.4012,-89.0355,1004.566,11111222 
WAVCIS,ioos:station:WAVCIS:CSI16:1,2010-02-06T06:00:00Z,29.4012,-89.0355,1004.711,11111222 
WAVCIS,ioos:station:WAVCIS:CSI16:1,2010-02-06T07:00:00Z,29.4012,-89.0355,1005.05,11111222 
WAVCIS,ioos:station:WAVCIS:CSI16:1,2010-02-06T08:00:00Z,29.4012,-89.0355,1005.631,11111222 
WAVCIS,ioos:station:WAVCIS:CSI16:1,2010-02-06T09:00:00Z,29.4012,-89.0355,1005.414,11111222 
WAVCIS,ioos:station:WAVCIS:CSI16:1,2010-02-06T10:00:00Z,29.4012,-89.0355,1005.03,11111222 
WAVCIS,ioos:station:WAVCIS:CSI16:1,2010-02-06T11:00:00Z,29.4012,-89.0355,1005.143,11111222 
WAVCIS,ioos:station:WAVCIS:CSI16:1,2010-02-06T12:00:00Z,29.4012,-89.0355,1005.706,11111222 
WAVCIS,ioos:station:WAVCIS:CSI16:1,2010-02-06T13:00:00Z,29.4012,-89.0355,1005.812,11111222 
WAVCIS,ioos:station:WAVCIS:CSI16:1,2010-02-06T14:00:00Z,29.4012,-89.0355,1006.283,11111222 
WAVCIS,ioos:station:WAVCIS:CSI16:1,2010-02-06T15:00:00Z,29.4012,-89.0355,1007.19,11111222 
WAVCIS,ioos:station:WAVCIS:CSI16:1,2010-02-06T16:00:00Z,29.4012,-89.0355,1007.64,11111222 
WAVCIS,ioos:station:WAVCIS:CSI16:1,2010-02-06T17:00:00Z,29.4012,-89.0355,1008.07,11111222 
WAVCIS,ioos:station:WAVCIS:CSI16:1,2010-02-06T18:00:00Z,29.4012,-89.0355,1007.81,11111222 
WAVCIS,ioos:station:WAVCIS:CSI16:1,2010-02-06T19:00:00Z,29.4012,-89.0355,1007.27,11111222 
WAVCIS,ioos:station:WAVCIS:CSI16:1,2010-02-06T20:00:00Z,29.4012,-89.0355,1007.07,11111222 
WAVCIS,ioos:station:WAVCIS:CSI16:1,2010-02-06T21:00:00Z,29.4012,-89.0355,1007.15,11111222 
WAVCIS,ioos:station:WAVCIS:CSI16:1,2010-02-06T22:00:00Z,29.4012,-89.0355,1007.41,11111222 
WAVCIS,ioos:station:WAVCIS:CSI16:1,2010-02-06T23:00:00Z,29.4012,-89.0355,1008.07,11111222 
WAVCIS,ioos:station:WAVCIS:CSI16:1,2010-02-07T00:00:00Z,29.4012,-89.0355,1008.45,11111222 
WAVCIS,ioos:station:WAVCIS:CSI16:1,2010-02-07T01:00:00Z,29.4012,-89.0355,1009.3,11111222 
WAVCIS,ioos:station:WAVCIS:CSI16:1,2010-02-07T02:00:00Z,29.4012,-89.0355,1009.92,11111222 
WAVCIS,ioos:station:WAVCIS:CSI16:1,2010-02-07T03:00:00Z,29.4012,-89.0355,1010.47,11111222 
WAVCIS,ioos:station:WAVCIS:CSI16:1,2010-02-07T04:00:00Z,29.4012,-89.0355,1010.9,11111222 
WAVCIS,ioos:station:WAVCIS:CSI16:1,2010-02-07T05:00:00Z,29.4012,-89.0355,1010.53,11111222 
WAVCIS,ioos:station:WAVCIS:CSI16:1,2010-02-07T06:00:00Z,29.4012,-89.0355,1010.69,11111222 
WAVCIS,ioos:station:WAVCIS:CSI16:1,2010-02-07T07:00:00Z,29.4012,-89.0355,1010.38,11111222 
WAVCIS,ioos:station:WAVCIS:CSI16:1,2010-02-07T08:00:00Z,29.4012,-89.0355,1010.1,11111222 
WAVCIS,ioos:station:WAVCIS:CSI16:1,2010-02-07T09:00:00Z,29.4012,-89.0355,1010.03,11111222 
WAVCIS,ioos:station:WAVCIS:CSI16:1,2010-02-07T10:00:00Z,29.4012,-89.0355,1009.78,11111222 
WAVCIS,ioos:station:WAVCIS:CSI16:1,2010-02-07T11:00:00Z,29.4012,-89.0355,1009.79,11111222 
WAVCIS,ioos:station:WAVCIS:CSI16:1,2010-02-07T12:00:00Z,29.4012,-89.0355,1010.29,11111222 
WAVCIS,ioos:station:WAVCIS:CSI16:1,2010-02-07T13:00:00Z,29.4012,-89.0355,1010.74,11111222 
WAVCIS,ioos:station:WAVCIS:CSI16:1,2010-02-07T14:00:00Z,29.4012,-89.0355,1011.52,11111222 
WAVCIS,ioos:station:WAVCIS:CSI16:1,2010-02-07T15:00:00Z,29.4012,-89.0355,1012.09,11111222 
WAVCIS,ioos:station:WAVCIS:CSI16:1,2010-02-07T16:00:00Z,29.4012,-89.0355,1012.11,11111222 
WAVCIS,ioos:station:WAVCIS:CSI16:1,2010-02-07T17:00:00Z,29.4012,-89.0355,1012.08,11111222 
WAVCIS,ioos:station:WAVCIS:CSI16:1,2010-02-07T18:00:00Z,29.4012,-89.0355,1011.72,11111222 
WAVCIS,ioos:station:WAVCIS:CSI16:1,2010-02-07T19:00:00Z,29.4012,-89.0355,1010.69,11111222 
WAVCIS,ioos:station:WAVCIS:CSI16:1,2010-02-07T20:00:00Z,29.4012,-89.0355,1010.06,11111222 
WAVCIS,ioos:station:WAVCIS:CSI16:1,2010-02-07T21:00:00Z,29.4012,-89.0355,1010.15,11111222 
WAVCIS,ioos:station:WAVCIS:CSI16:1,2010-02-07T22:00:00Z,29.4012,-89.0355,1010.08,11111222 
WAVCIS,ioos:station:WAVCIS:CSI16:1,2010-02-07T23:00:00Z,29.4012,-89.0355,1010.47,11111222 
WAVCIS,ioos:station:WAVCIS:CSI16:1,2010-02-08T00:00:00Z,29.4012,-89.0355,1010.78,11111222 
WAVCIS,ioos:station:WAVCIS:CSI16:1,2010-02-08T01:00:00Z,29.4012,-89.0355,1011.15,11111222 
WAVCIS,ioos:station:WAVCIS:CSI16:1,2010-02-08T02:00:00Z,29.4012,-89.0355,1011.06,11111222 
WAVCIS,ioos:station:WAVCIS:CSI16:1,2010-02-08T03:00:00Z,29.4012,-89.0355,1011.02,11111222 
WAVCIS,ioos:station:WAVCIS:CSI16:1,2010-02-08T04:00:00Z,29.4012,-89.0355,1010.54,11111222 
WAVCIS,ioos:station:WAVCIS:CSI16:1,2010-02-08T05:00:00Z,29.4012,-89.0355,1010.69,11111222 
WAVCIS,ioos:station:WAVCIS:CSI16:1,2010-02-08T06:00:00Z,29.4012,-89.0355,1010.63,11111222 
WAVCIS,ioos:station:WAVCIS:CSI16:1,2010-02-08T07:00:00Z,29.4012,-89.0355,1010.55,11111222 
WAVCIS,ioos:station:WAVCIS:CSI16:1,2010-02-08T08:00:00Z,29.4012,-89.0355,1009.88,11111222 
WAVCIS,ioos:station:WAVCIS:CSI16:1,2010-02-08T09:00:00Z,29.4012,-89.0355,1009.0,11111222 
WAVCIS,ioos:station:WAVCIS:CSI16:1,2010-02-08T10:00:00Z,29.4012,-89.0355,1008.9,11111222 
WAVCIS,ioos:station:WAVCIS:CSI16:1,2010-02-08T11:00:00Z,29.4012,-89.0355,1008.43,11111222 
WAVCIS,ioos:station:WAVCIS:CSI16:1,2010-02-08T12:00:00Z,29.4012,-89.0355,1008.96,11111222 
WAVCIS,ioos:station:WAVCIS:CSI16:1,2010-02-08T13:00:00Z,29.4012,-89.0355,1009.56,11111222 
WAVCIS,ioos:station:WAVCIS:CSI16:1,2010-02-08T14:00:00Z,29.4012,-89.0355,1010.08,11111222 
WAVCIS,ioos:station:WAVCIS:CSI16:1,2010-02-08T15:00:00Z,29.4012,-89.0355,1010.89,11111222 
WAVCIS,ioos:station:WAVCIS:CSI16:1,2010-02-08T16:00:00Z,29.4012,-89.0355,1011.28,11111222 
WAVCIS,ioos:station:WAVCIS:CSI16:1,2010-02-08T17:00:00Z,29.4012,-89.0355,1010.75,11111222 
WAVCIS,ioos:station:WAVCIS:CSI16:1,2010-02-08T18:00:00Z,29.4012,-89.0355,1010.39,11111222 
WAVCIS,ioos:station:WAVCIS:CSI16:1,2010-02-08T19:00:00Z,29.4012,-89.0355,1009.24,11111222 
WAVCIS,ioos:station:WAVCIS:CSI16:1,2010-02-08T20:00:00Z,29.4012,-89.0355,1007.86,11111222 
WAVCIS,ioos:station:WAVCIS:CSI16:1,2010-02-08T21:00:00Z,29.4012,-89.0355,1007.24,11111222 
WAVCIS,ioos:station:WAVCIS:CSI16:1,2010-02-08T22:00:00Z,29.4012,-89.0355,1006.606,11111222 
WAVCIS,ioos:station:WAVCIS:CSI16:1,2010-02-08T23:00:00Z,29.4012,-89.0355,1006.377,11111222 
WAVCIS,ioos:station:WAVCIS:CSI16:1,2010-02-09T00:00:00Z,29.4012,-89.0355,1006.526,11111222 
WAVCIS,ioos:station:WAVCIS:CSI16:1,2010-02-09T01:00:00Z,29.4012,-89.0355,1005.884,11111222 
WAVCIS,ioos:station:WAVCIS:CSI16:1,2010-02-09T02:00:00Z,29.4012,-89.0355,1006.077,11111222 
WAVCIS,ioos:station:WAVCIS:CSI16:1,2010-02-09T03:00:00Z,29.4012,-89.0355,1005.338,11111222 
WAVCIS,ioos:station:WAVCIS:CSI16:1,2010-02-09T04:00:00Z,29.4012,-89.0355,1005.225,11111222 
WAVCIS,ioos:station:WAVCIS:CSI16:1,2010-02-09T05:00:00Z,29.4012,-89.0355,1005.211,11111222 
WAVCIS,ioos:station:WAVCIS:CSI16:1,2010-02-09T06:00:00Z,29.4012,-89.0355,1004.279,11111222 
WAVCIS,ioos:station:WAVCIS:CSI16:1,2010-02-09T07:00:00Z,29.4012,-89.0355,1004.516,11111222 
WAVCIS,ioos:station:WAVCIS:CSI16:1,2010-02-09T08:00:00Z,29.4012,-89.0355,1003.479,11111222 
WAVCIS,ioos:station:WAVCIS:CSI16:1,2010-02-09T09:00:00Z,29.4012,-89.0355,1003.159,11111222 
WAVCIS,ioos:station:WAVCIS:CSI16:1,2010-02-09T10:00:00Z,29.4012,-89.0355,1003.217,11111222 
WAVCIS,ioos:station:WAVCIS:CSI16:1,2010-02-09T11:00:00Z,29.4012,-89.0355,1003.255,11111222 
WAVCIS,ioos:station:WAVCIS:CSI16:1,2010-02-09T12:00:00Z,29.4012,-89.0355,1004.151,11111222 
WAVCIS,ioos:station:WAVCIS:CSI16:1,2010-02-09T13:00:00Z,29.4012,-89.0355,1004.268,11111222 
WAVCIS,ioos:station:WAVCIS:CSI16:1,2010-02-09T14:00:00Z,29.4012,-89.0355,1005.445,11111222 
WAVCIS,ioos:station:WAVCIS:CSI16:1,2010-02-09T15:00:00Z,29.4012,-89.0355,1006.679,11111222 
WAVCIS,ioos:station:WAVCIS:CSI16:1,2010-02-09T16:00:00Z,29.4012,-89.0355,1007.76,11111222 
WAVCIS,ioos:station:WAVCIS:CSI16:1,2010-02-09T17:00:00Z,29.4012,-89.0355,1008.85,11111222 
WAVCIS,ioos:station:WAVCIS:CSI16:1,2010-02-09T18:00:00Z,29.4012,-89.0355,1008.65,11111222 
WAVCIS,ioos:station:WAVCIS:CSI16:1,2010-02-09T19:00:00Z,29.4012,-89.0355,1008.33,11111222 
WAVCIS,ioos:station:WAVCIS:CSI16:1,2010-02-09T20:00:00Z,29.4012,-89.0355,1008.45,11111222 
WAVCIS,ioos:station:WAVCIS:CSI16:1,2010-02-09T21:00:00Z,29.4012,-89.0355,1008.79,11111222 
WAVCIS,ioos:station:WAVCIS:CSI16:1,2010-02-09T22:00:00Z,29.4012,-89.0355,1009.24,11111222 
WAVCIS,ioos:station:WAVCIS:CSI16:1,2010-02-09T23:00:00Z,29.4012,-89.0355,1010.05,11111222 
WAVCIS,ioos:station:WAVCIS:CSI16:1,2010-02-10T00:00:00Z,29.4012,-89.0355,1010.76,11111222 
WAVCIS,ioos:station:WAVCIS:CSI16:1,2010-02-10T01:00:00Z,29.4012,-89.0355,1011.84,11111222 
WAVCIS,ioos:station:WAVCIS:CSI16:1,2010-02-10T02:00:00Z,29.4012,-89.0355,1012.44,11111222 
WAVCIS,ioos:station:WAVCIS:CSI16:1,2010-02-10T03:00:00Z,29.4012,-89.0355,1013.23,11111222 
WAVCIS,ioos:station:WAVCIS:CSI16:1,2010-02-10T04:00:00Z,29.4012,-89.0355,1013.51,11111222 
WAVCIS,ioos:station:WAVCIS:CSI16:1,2010-02-10T05:00:00Z,29.4012,-89.0355,1013.94,11111222 
WAVCIS,ioos:station:WAVCIS:CSI16:1,2010-02-10T06:00:00Z,29.4012,-89.0355,1014.13,11111222 
WAVCIS,ioos:station:WAVCIS:CSI16:1,2010-02-10T07:00:00Z,29.4012,-89.0355,1014.09,11111222 
WAVCIS,ioos:station:WAVCIS:CSI16:1,2010-02-10T08:00:00Z,29.4012,-89.0355,1014.14,11111222 
WAVCIS,ioos:station:WAVCIS:CSI16:1,2010-02-10T09:00:00Z,29.4012,-89.0355,1013.64,11111222 
WAVCIS,ioos:station:WAVCIS:CSI16:1,2010-02-10T10:00:00Z,29.4012,-89.0355,1014.19,11111222 
WAVCIS,ioos:station:WAVCIS:CSI16:1,2010-02-10T11:00:00Z,29.4012,-89.0355,1014.58,11111222 
WAVCIS,ioos:station:WAVCIS:CSI16:1,2010-02-10T12:00:00Z,29.4012,-89.0355,1015.0,11111222 
WAVCIS,ioos:station:WAVCIS:CSI16:1,2010-02-10T13:00:00Z,29.4012,-89.0355,1015.2,11111222 
WAVCIS,ioos:station:WAVCIS:CSI16:1,2010-02-10T14:00:00Z,29.4012,-89.0355,1015.88,11111222 
WAVCIS,ioos:station:WAVCIS:CSI16:1,2010-02-10T15:00:00Z,29.4012,-89.0355,1016.41,11111222 
WAVCIS,ioos:station:WAVCIS:CSI16:1,2010-02-10T16:00:00Z,29.4012,-89.0355,1016.57,11111222 
WAVCIS,ioos:station:WAVCIS:CSI16:1,2010-02-10T18:00:00Z,29.4012,-89.0355,1016.13,11111222 
WAVCIS,ioos:station:WAVCIS:CSI16:1,2010-02-10T20:00:00Z,29.4012,-89.0355,1015.49,11111222 
WAVCIS,ioos:station:WAVCIS:CSI16:1,2010-02-11T01:00:00Z,29.4012,-89.0355,1015.04,11111222 
WAVCIS,ioos:station:WAVCIS:CSI16:1,2010-02-11T02:00:00Z,29.4012,-89.0355,1014.86,11111222 
WAVCIS,ioos:station:WAVCIS:CSI16:1,2010-02-11T03:00:00Z,29.4012,-89.0355,1015.15,11111222 
WAVCIS,ioos:station:WAVCIS:CSI16:1,2010-02-11T04:00:00Z,29.4012,-89.0355,1015.01,11111222 
WAVCIS,ioos:station:WAVCIS:CSI16:1,2010-02-11T05:00:00Z,29.4012,-89.0355,1015.38,11111222 
WAVCIS,ioos:station:WAVCIS:CSI16:1,2010-02-11T06:00:00Z,29.4012,-89.0355,1014.98,11111222 
WAVCIS,ioos:station:WAVCIS:CSI16:1,2010-02-11T07:00:00Z,29.4012,-89.0355,1014.81,11111222 
WAVCIS,ioos:station:WAVCIS:CSI16:1,2010-02-11T08:00:00Z,29.4012,-89.0355,1014.2,11111222 
WAVCIS,ioos:station:WAVCIS:CSI16:1,2010-02-11T09:00:00Z,29.4012,-89.0355,1013.4,11111222 
WAVCIS,ioos:station:WAVCIS:CSI16:1,2010-02-11T10:00:00Z,29.4012,-89.0355,1013.03,11111222 
WAVCIS,ioos:station:WAVCIS:CSI16:1,2010-02-11T11:00:00Z,29.4012,-89.0355,1013.21,11111222 
WAVCIS,ioos:station:WAVCIS:CSI16:1,2010-02-11T12:00:00Z,29.4012,-89.0355,1012.98,11111222 
WAVCIS,ioos:station:WAVCIS:CSI16:1,2010-02-11T13:00:00Z,29.4012,-89.0355,1013.81,11111222 
WAVCIS,ioos:station:WAVCIS:CSI16:1,2010-02-11T14:00:00Z,29.4012,-89.0355,1013.41,11111222 
WAVCIS,ioos:station:WAVCIS:CSI16:1,2010-02-11T15:00:00Z,29.4012,-89.0355,1012.93,11111222 
WAVCIS,ioos:station:WAVCIS:CSI16:1,2010-02-11T16:00:00Z,29.4012,-89.0355,1012.72,11111222 
WAVCIS,ioos:station:WAVCIS:CSI16:1,2010-02-11T17:00:00Z,29.4012,-89.0355,1012.47,11111222 
WAVCIS,ioos:station:WAVCIS:CSI16:1,2010-02-11T18:00:00Z,29.4012,-89.0355,1011.44,11111222 
WAVCIS,ioos:station:WAVCIS:CSI16:1,2010-02-11T19:00:00Z,29.4012,-89.0355,1010.95,11111222 
WAVCIS,ioos:station:WAVCIS:CSI16:1,2010-02-11T20:00:00Z,29.4012,-89.0355,1010.12,11111222 
WAVCIS,ioos:station:WAVCIS:CSI16:1,2010-02-11T21:00:00Z,29.4012,-89.0355,1008.88,11111222 
WAVCIS,ioos:station:WAVCIS:CSI16:1,2010-02-11T22:00:00Z,29.4012,-89.0355,1008.1,11111222 
WAVCIS,ioos:station:WAVCIS:CSI16:1,2010-02-11T23:00:00Z,29.4012,-89.0355,1007.48,11111222 
WAVCIS,ioos:station:WAVCIS:CSI16:1,2010-02-12T00:00:00Z,29.4012,-89.0355,1008.76,11111222 
WAVCIS,ioos:station:WAVCIS:CSI16:1,2010-02-12T01:00:00Z,29.4012,-89.0355,1008.04,11111222 
WAVCIS,ioos:station:WAVCIS:CSI16:1,2010-02-12T02:00:00Z,29.4012,-89.0355,1007.76,11111222 
WAVCIS,ioos:station:WAVCIS:CSI16:1,2010-02-12T03:00:00Z,29.4012,-89.0355,1007.45,11111222 